Zurück zum Katalog

FSKL5695-13

AktivAmateurfunkSSO
NORAD 64887·PAYLOAD·🇷🇺 Russia
Dieser Satellitenname wurde noch nicht durch offizielle Quellen bestätigt.

Gestartet Jul 25, 2025 von Vostochny Cosmodrome

Loading…

Nächste Überflüge (nächste 24 Stunden)

TLE

AktuellSource: Space-Track

Epoche: Sep 14, 2026, 14:45 UTC

1 64887U 25155M   26257.61501161  .00027809  00000-0  63593-3 0  9999
2 64887  97.4595 229.6386 0006132 171.2830 188.8525 15.42776331 94654

Verfolge FSKL5695-13 in Echtzeit mit AllMySat

Download on the App Store